SCP
-0 -0 0 0 0 -0 -0 -0 -0 -0 -0 0 0 0 -0 0 -0 -0 -0 -0 -0 -0 -0 -0 0 0 0 0 0 0 0 0 0 -0 -0 -0 -0 -0 -0 -0 0 0 -0 -0 -0 -0 -0 -0 0
-0 0 0 -0 -0 -0 -0 0 -0 0 0 -0 -0 0 0 0 0 -0 -0 -0 -0 -0 -0 -0 0 0 0 0 0 0 -0 0 0 0 -0 -0 -0 -0 -0 -0 -0 -0 -0 -0 0 -0 -0 0 0
-0 0 -0 -0 -0 -0 -0 -0 0 0 -0 0 0 0 -0 -0 -0 -0 -0 0 -0 -0 -0 -0 0 0 0 0 0 0 0 0 0 0 -0 -0 -0 -0 -0 -0 -0 -0 0 0 -0 0 -0 0 -0
0 -0 -0 -0 -0 -0 -0 0 -0 -0 -0 0 -0 -0 -0 -0 -0 -0 0 0 -0 -0 -0 0 0 0 0 0 0 0 0 0 0 0 -0 -0 -0 -0 -0 -0 -0 0 0 0 0 0 0 -0 0
-0 -0 -0 0 -0 -0 0 -0 -0 0 0 -0 -0 -0 0 -0 0 0 0 0 0 -0 -0 0 0 0 0 0 0 0 0 0 0 -0 -0 -0 -0 -0 -0 0 0 0 0 0 0 0 0 -0 0
0 -0 -0 -0 0 0 -0 -0 -0 -0 -0 -0 -0 -0 -0 0 -0 0 0 0 0 0 -0 0 0 0 0 0 0 0 0 0 -0 -0 -0 -0 -0 0 0 0 0 0 0 0 0 0 0 0 0
-0 -0 0 -0 -0 -0 -0 -0 0 -0 -0 0 -0 -0 0 0 0 -0 -0 0 0 0 -0 -0 -0 0 -0 0 0 0 -0 -0 -0 0 0 0 0 0 0 0 0 0 0 0 0 0 0 0 0
0 0 0 0 0 -0 0 0 -0 -0 -0 -0 -0 -0 -0 0 0 -0 -0 0 -0 0 -0 -0 -0 -0 -0 -0 -0 -0 -0 -0 0 0 0 0 0 0 0 0 0 0 0 0 0 0 0 0 0
0 0 0 0 -0 -0 -0 0 0 0 -0 0 -0 -0 -0 0 0 -0 -0 0 0 0 -0 -0 -0 -0 -0 -0 -0 -0 -0 -0 0 0 0 0 0 0 0 0 0 0 0 0 0 0 0 0 0
-0 0 0 -0 0 -0 -0 -0 -0 0 -0 -0 -0 -0 -0 0 -0 -0 -0 -0 0 0 -0 -0 -0 -0 -0 -0 -0 -0 -0 -0 -0 0 0 -0 0 0 0 0 0 0 0 0 0 0 0 0 0
0 0 0 -0 -0 0 -0 -0 -0 -0 -0 -0 -0 -0 -0 -0 -0 -0 -0 -0 -0 -0 -0 -0 -0 -0 -0 -0 -0 -0 -0 -0 -0 -0 -0 -0 -0 0 0 0 -0 0 0 -0 -0 0 0 0 0
0 0 -0 0 -0 0 -0 -0 -0 -0 -0 -0 -1 -0 -0 -0 -0 -0 -0 -0 0 0 -0 -0 0 -0 -0 -0 -0 -0 -0 -0 -0 -0 -0 -0 0 0 0 0 -0 0 0 0 0 0 0 -0 0
0 0 0 -0 0 0 0 0 -0 -0 -0 -0 -0 -1 -0 -0 -0 -0 -0 -0 -0 -0 -0 -0 0 0 0 -0 -0 -0 -0 -0 -0 -0 -0 -0 -0 0 0 0 0 0 0 0 0 0 0 0 0
0 0 0 -0 -0 -0 0 0 0 0 -0 -0 -1 -1 -0 -0 -0 -0 -0 -0 -0 0 -0 0 0 0 0 -0 -0 -0 -0 -0 -0 -0 -0 -0 -0 0 0 0 0 0 0 0 0 0 0 0 0
0 0 0 -0 0 -0 0 0 0 -0 -0 -0 -0 -0 -0 -0 -0 -0 -0 -0 -0 0 -0 -0 -0 0 0 -0 0 0 0 -0 0 0 0 -0 -0 -0 0 0 0 0 0 0 0 0 0 0 0
-0 -0 -0 0 -0 0 0 0 -0 -0 -1 -0 -0 -0 -0 -0 -0 -0 -0 -0 -0 0 -0 -0 -0 -0 -0 -0 0 0 0 0 0 0 0 -0 -0 -0 0 0 0 0 0 0 0 0 0 0 0
0 -0 -0 -0 -0 -0 0 0 -0 -0 -0 -0 -0 -0 -0 -0 -0 -0 -0 -0 -0 -0 -0 -0 -0 -0 -0 0 0 0 0 0 0 0 0 -0 -0 -0 0 0 0 0 0 0 0 0 0 0 0
-0 0 -0 -0 -0 -0 0 0 -0 -0 -0 -0 -0 -0 -0 -0 0 -0 -0 -0 0 0 -0 -0 -0 -0 -0 0 0 0 -0 0 -0 0 -0 -0 -0 -0 0 0 0 0 0 0 0 0 0 0 0
0 -0 -0 -0 -0 0 0 0 -0 -0 -0 -0 -1 -1 -0 -0 -0 -0 -0 -0 -0 -0 -0 -0 -0 -0 -0 0 0 0 0 0 0 0 0 -0 -0 -0 0 0 0 0 0 0 0 0 0 0 0
-0 -0 -0 -0 0 0 0 -0 -0 -0 -0 -0 -0 -0 -0 -0 -0 -0 -0 -0 -0 -0 -0 -0 -0 -0 -0 -0 -0 0 -0 -0 -0 -0 0 -0 -0 -0 0 0 0 0 0 0 0 0 0 0 0
-0 -0 -0 -0 -0 0 0 0 0 0 -0 -0 -0 -0 -0 -0 -0 -0 -0 -0 -0 -0 -0 -0 -0 -1 -0 -0 0 0 0 -0 -0 0 0 -0 -0 0 0 0 0 0 0 0 0 0 0 0 0
-0 -0 -0 -0 0 0 0 0 -0 0 0 -0 -0 -0 -0 -0 -0 -0 -0 -0 -0 -0 -0 -0 -0 -1 -1 -1 -0 -0 0 0 -0 -0 -0 0 0 0 -0 -0 -0 0 0 0 0 0 0 0 0
-0 0 -0 -0 0 0 0 0 0 0 -0 -0 -0 -0 -0 -0 -0 -0 -0 -0 -1 -0 -0 -0 -1 -1 -1 -1 -0 -0 0 0 0 0 0 0 0 0 -0 -0 -0 -0 0 0 0 0 0 0 0
-0 0 0 0 0 0 -0 0 0 0 -0 0 -0 -0 -0 -0 -0 -0 -0 -0 -0 -0 -1 -0 -0 -0 -1 -1 -0 -0 -0 0 0 -0 -0 0 0 0 -0 -0 -0 -0 0 0 0 0 0 0 0
0 0 0 0 0 0 -0 0 -0 0 0 -0 -0 -0 -0 -0 -0 -0 -0 -0 -0 -0 -0 -0 -0 -0 -0 -0 -0 -0 0 0 0 0 0 0 0 0 -0 -0 -0 0 0 0 0 0 0 0 0
-0 0 -0 0 0 0 0 0 -0 -0 -0 -0 -0 -0 -0 -0 -0 -0 -0 -0 -0 -0 -1 -1 -0 -0 -0 -0 0 0 0 0 0 0 0 0 -0 -0 -0 -0 -0 -0 -0 0 0 0 0 0 0
-0 -0 0 -0 0 0 0 0 0 0 0 -0 -0 -0 -0 -0 -0 -0 -0 -0 -0 -0 -1 -2 -1 -1 -1 -1 0 0 0 0 0 0 0 0 0 0 -0 -0 -0 -0 -0 0 0 0 0 0 0
0 0 0 0 -0 0 0 0 0 0 0 0 -0 -0 -0 -0 -0 -0 -0 -0 -0 -0 -1 -1 -2 -1 -2 -1 -0 -0 0 0 0 0 0 0 0 -0 -0 -0 -0 -0 -0 -0 0 0 0 0 0
0 0 0 0 0 0 0 -0 0 0 0 0 0 -0 -0 -0 -0 -0 -0 0 -0 -0 -1 -1 -1 -1 -1 -1 -1 -0 -0 -0 0 0 0 0 -0 -0 -0 -0 -0 -0 -0 -0 0 0 0 0 0
0 0 0 0 0 0 0 -0 0 0 0 0 0 -0 -0 0 0 -0 -0 -0 0 -0 -1 -1 -1 -1 -1 -1 -1 -1 -0 -0 0 0 0 0 -0 -0 -0 -0 -0 -0 -0 0 0 0 0 0 0
Wind_Speed_500mb
25 22 9 5 4 4 4 2 8 9 4 9 15 23 22 24 4 11 40 51 57 58 54 54 59 64 63 59 57 54 50 46 43 39 39 36 32 31 28 25 25 26 27 25 25 24 24 26 25
35 17 1 1 3 2 5 3 10 5 16 36 33 29 25 14 28 46 55 53 59 60 55 53 56 59 60 56 53 49 45 41 39 38 36 33 31 28 25 24 25 25 25 25 23 24 25 25 24
29 8 8 7 4 5 7 4 22 19 33 9 15 31 14 18 54 61 59 60 58 60 55 52 52 55 56 54 49 46 42 38 36 34 31 30 27 25 24 24 23 23 24 26 24 26 28 26 25
25 11 6 4 19 10 7 30 37 28 19 16 41 24 24 13 45 56 62 58 61 59 55 52 50 53 54 52 46 42 39 35 32 29 28 27 25 24 25 23 23 22 23 24 25 26 30 29 27
36 9 1 16 18 8 24 44 42 19 20 43 40 22 23 33 60 63 58 58 59 57 54 52 51 50 51 49 45 40 36 32 28 26 26 25 24 25 25 26 25 23 22 24 29 30 28 28 27
9 2 6 7 16 12 31 61 53 40 42 53 45 38 19 63 60 55 51 51 48 53 52 50 49 48 48 46 43 40 35 30 28 26 25 23 25 25 31 29 24 22 23 22 27 30 29 27 27
13 3 13 18 7 30 46 66 54 47 44 19 50 19 43 60 62 53 47 42 44 47 51 51 49 47 46 45 43 38 33 29 28 26 23 23 25 25 22 26 27 24 24 21 24 26 27 26 20
26 7 8 9 26 18 36 34 60 74 33 54 66 18 43 73 65 54 48 44 44 46 48 50 48 46 45 44 41 37 32 30 26 22 20 20 20 23 22 25 28 26 25 21 25 26 22 19 18
20 6 7 8 14 11 61 34 46 34 68 41 15 59 77 75 68 63 55 46 48 46 47 49 47 45 44 42 40 35 32 28 24 21 19 18 21 17 15 22 25 24 22 20 22 18 15 13 12
15 7 11 12 9 2 55 64 50 34 59 19 44 64 78 82 78 73 65 57 51 51 51 48 47 46 46 43 38 34 30 25 21 19 17 19 14 13 9 9 16 15 13 17 13 11 7 8 8
17 12 12 15 32 19 59 64 63 66 34 66 72 79 81 83 79 80 69 55 54 44 51 52 50 48 46 42 36 31 27 22 21 18 9 10 14 13 8 10 16 12 6 11 13 14 10 5 9
8 27 33 11 14 29 43 66 53 69 40 83 84 90 95 82 76 83 73 63 56 50 50 51 50 50 47 39 27 25 23 28 28 18 10 11 15 11 4 5 7 4 5 6 8 12 8 10 4
9 12 49 43 28 37 47 49 48 41 70 77 81 92 92 90 90 81 73 64 60 54 47 49 47 48 45 41 28 34 27 27 22 19 12 11 14 10 7 2 1 3 4 9 6 12 4 8 12
23 42 46 51 45 26 28 19 29 55 75 79 83 92 89 87 96 84 79 73 65 52 51 50 47 48 51 41 35 32 26 23 20 20 12 16 21 11 10 11 7 7 6 5 8 5 5 8 3
25 13 28 36 35 8 49 11 30 78 87 83 80 84 85 93 95 88 82 74 62 58 55 54 51 49 44 38 34 29 31 31 24 27 19 19 17 12 12 19 20 16 12 10 4 6 8 7 5
6 6 8 27 37 30 31 20 43 84 84 73 72 75 77 93 95 89 80 71 66 62 62 57 58 55 47 49 48 40 28 27 26 22 21 19 16 14 12 12 17 18 10 11 9 9 13 10 7
5 9 13 22 19 31 11 8 51 77 78 71 73 74 75 78 77 93 84 74 67 63 62 60 63 61 53 55 51 47 48 38 30 26 23 24 20 18 15 12 14 20 14 13 17 12 7 7 14
11 6 12 12 3 35 11 16 43 72 74 74 74 75 77 81 79 68 78 76 70 66 61 53 64 66 56 46 54 56 49 50 40 31 27 33 22 22 17 16 11 16 10 14 9 8 8 14 6
8 11 16 22 7 8 34 37 41 69 67 66 70 74 78 91 87 78 73 69 78 73 68 63 67 69 58 53 47 49 61 58 51 44 37 30 32 27 19 24 19 19 10 4 15 11 13 15 8
18 26 35 18 21 16 20 41 39 51 64 83 79 76 80 82 87 92 87 78 84 80 73 66 65 66 61 56 53 46 33 49 48 37 34 35 36 28 23 20 16 25 19 15 18 12 9 19 14
29 33 30 17 14 2 17 6 7 20 44 59 75 87 88 92 94 97 97 96 89 87 84 77 70 71 67 60 51 50 37 36 42 44 40 40 38 28 25 22 20 29 30 25 20 14 17 21 17
26 31 28 16 8 13 13 8 12 20 18 29 61 73 81 86 95 102 104 107 103 98 91 83 79 77 75 65 58 61 55 46 50 47 37 36 32 34 29 29 28 30 31 29 19 16 22 24 20
28 24 20 21 12 9 7 8 13 18 23 22 45 78 83 94 101 105 110 114 113 104 97 90 85 81 79 71 69 66 61 46 50 40 32 38 37 40 33 25 35 30 29 27 22 15 22 28 24
27 15 16 7 11 16 27 26 12 21 24 35 44 66 90 90 100 109 114 113 114 109 103 98 92 88 83 77 70 70 68 56 57 51 39 41 35 43 40 30 29 29 31 32 23 19 18 28 24
23 14 11 14 17 20 21 13 25 36 37 48 46 69 87 95 97 102 98 103 111 116 113 106 99 96 91 83 74 66 65 61 59 57 49 45 45 50 44 36 35 34 32 29 29 24 23 29 33
19 31 18 19 9 9 11 18 26 31 44 79 87 81 80 90 100 105 116 120 122 121 118 114 107 102 97 90 80 68 62 67 62 58 60 55 53 47 38 37 38 36 36 34 32 25 23 25 34
20 20 24 11 7 4 9 14 12 20 24 51 68 71 78 96 99 113 122 123 123 123 124 119 113 107 101 95 84 74 66 69 71 64 58 58 51 44 39 39 37 40 40 34 35 31 28 28 29
35 15 7 4 31 35 10 12 16 16 29 27 45 66 87 90 102 107 105 123 123 122 125 121 115 112 102 97 88 76 69 70 77 70 72 66 55 50 49 45 44 39 39 35 34 35 34 30 29
22 21 6 12 16 25 14 31 17 20 20 28 45 82 90 89 98 103 114 118 124 122 120 122 119 115 110 100 92 81 73 72 75 81 76 77 71 61 62 58 54 50 48 45 43 40 41 38 31
41 30 22 18 13 12 31 49 6 21 19 20 48 83 94 76 88 94 106 104 107 112 113 121 119 116 113 103 95 87 78 74 76 81 86 82 82 78 71 65 63 56 53 56 51 46 48 50 42
Wind_Direction_500mb
132 119 122 11 320 52 285 278 126 136 127 64 92 114 96 42 85 144 148 147 146 139 138 134 138 141 143 139 136 133 130 127 123 121 114 111 109 101 95 94 86 75 70 70 70 74 82 85 100
144 128 46 194 76 343 264 179 151 176 119 107 84 92 56 74 97 134 143 150 148 143 144 139 143 145 146 145 139 137 131 128 124 116 113 115 107 99 94 90 79 69 64 64 68 74 78 85 97
151 37 28 38 289 210 116 91 128 124 131 114 108 73 76 99 124 137 140 144 149 148 146 144 146 148 150 148 145 139 135 130 124 115 116 111 105 95 87 82 72 64 62 64 67 72 74 82 95
158 85 59 333 249 241 167 147 139 148 108 99 107 77 85 140 134 146 141 143 145 146 149 149 150 150 153 154 151 145 140 136 127 119 117 110 101 87 76 75 66 60 62 67 71 73 73 79 93
158 134 252 316 274 284 153 149 149 129 127 107 105 102 96 139 135 137 141 144 147 149 152 151 154 154 156 157 157 151 147 142 135 127 117 107 95 79 76 69 63 61 61 68 74 82 84 85 90
94 230 15 285 329 200 156 151 151 125 123 115 101 104 105 138 138 147 142 145 152 154 156 155 156 159 160 160 159 156 152 147 139 128 117 106 90 85 82 73 67 65 63 69 79 90 94 96 95
35 237 198 195 263 142 137 146 137 134 140 133 129 108 142 151 152 157 157 157 160 161 163 161 162 163 164 166 164 160 155 151 142 130 123 108 95 89 89 78 73 78 74 84 82 95 101 101 98
205 176 233 231 182 164 152 132 143 142 143 136 122 156 166 163 159 162 160 161 165 166 166 165 165 166 166 167 166 164 160 153 142 139 129 113 110 89 89 79 74 77 73 92 103 100 98 93 83
164 261 277 274 90 157 152 135 158 143 140 156 198 158 158 157 160 165 166 166 169 173 173 171 170 170 171 170 169 167 162 155 150 149 141 119 116 96 88 85 75 80 81 88 85 93 85 69 65
176 186 236 212 152 162 153 150 149 139 152 152 124 145 158 160 167 169 175 171 168 175 179 179 177 175 174 173 171 166 164 159 157 155 152 143 137 103 96 81 64 97 82 60 80 88 125 77 38
202 221 214 254 236 171 145 146 153 151 174 159 151 158 166 169 171 175 178 174 175 175 180 183 182 180 176 174 169 169 170 172 165 165 192 157 133 102 96 63 79 77 84 48 57 81 53 69 45
194 258 246 228 116 149 165 155 163 164 178 167 158 162 163 173 178 181 182 182 178 175 179 182 183 184 181 173 170 171 173 162 153 146 119 157 157 149 162 80 40 62 42 56 42 37 58 33 59
219 239 261 267 279 148 181 165 167 170 155 164 164 164 169 172 181 187 184 185 183 178 177 177 178 185 180 167 164 170 164 168 166 166 151 121 151 186 225 327 358 335 12 325 331 354 343 93 95
213 235 251 254 260 172 161 194 131 153 157 159 166 170 175 181 184 189 189 189 189 186 184 178 178 177 172 174 168 178 190 202 201 198 183 172 181 222 246 241 246 260 264 298 300 8 80 125 128
232 224 254 261 260 221 130 147 155 154 157 163 166 174 178 186 188 191 193 195 194 192 191 189 182 182 181 180 185 196 204 212 203 189 182 194 222 259 276 249 244 279 255 289 271 323 191 208 221
351 142 221 249 250 171 145 182 153 160 160 168 172 174 173 190 191 195 198 198 194 195 197 196 194 194 190 187 198 199 193 192 196 202 195 205 238 263 271 268 254 229 242 254 272 308 228 217 185
10 236 243 294 181 170 129 181 165 167 163 169 175 181 184 182 192 199 200 199 195 196 194 200 203 203 200 203 210 207 210 203 210 224 232 230 236 256 253 280 241 226 252 245 291 283 198 297 276
214 245 268 242 134 174 161 153 161 172 167 174 179 182 187 192 200 201 204 202 196 197 199 204 209 209 205 208 218 218 216 218 217 219 238 236 244 259 246 275 245 234 253 271 245 211 243 322 166
229 246 253 270 335 87 161 165 172 176 176 179 183 185 190 190 198 204 210 207 197 199 205 207 206 204 202 207 211 214 224 221 214 220 226 229 246 251 272 264 267 240 254 244 213 205 283 181 149
232 249 262 307 279 167 200 178 174 175 184 183 185 189 193 195 198 203 210 210 202 206 208 210 212 206 206 216 219 218 221 214 218 221 230 228 236 248 261 261 254 224 217 229 226 253 242 178 158
232 232 250 235 312 266 130 43 169 195 192 192 191 190 193 194 197 204 207 208 209 208 210 213 216 215 217 219 220 219 216 215 220 227 231 228 239 232 248 241 244 218 213 226 239 263 196 182 171
238 233 242 249 276 244 163 222 214 223 214 192 197 196 196 199 201 201 205 209 211 213 214 215 217 218 221 224 218 216 217 218 205 212 216 224 226 229 237 246 235 219 227 231 240 259 208 190 197
242 239 235 227 233 217 264 128 245 160 222 211 196 198 198 200 202 203 206 211 213 214 215 217 217 217 220 220 222 221 225 230 219 216 214 214 226 230 232 241 223 234 225 231 245 229 210 212 204
226 249 253 211 201 228 227 214 239 211 211 222 204 202 201 201 204 207 210 212 214 215 215 216 216 216 218 219 224 228 231 230 223 211 214 216 222 229 235 229 235 228 227 233 228 219 223 214 214
197 171 252 248 230 234 208 226 227 208 211 204 206 205 203 202 202 206 207 206 211 214 215 217 216 216 216 220 224 230 233 229 219 210 214 219 224 225 226 228 235 232 231 228 225 221 228 224 224
196 201 203 213 213 251 214 222 232 228 213 200 209 208 204 202 203 205 209 213 213 216 216 217 217 216 216 218 223 227 231 224 219 213 220 225 229 232 234 241 237 231 223 228 224 223 222 227 223
219 205 202 197 207 268 221 250 295 243 207 208 207 198 202 203 203 205 212 215 216 216 219 218 217 218 219 219 221 224 227 223 216 210 216 223 227 232 238 241 232 227 226 229 230 225 218 229 229
209 179 188 241 222 240 240 220 233 203 221 198 203 200 201 201 203 208 208 212 217 219 221 220 222 218 220 221 221 221 226 225 219 215 218 225 227 228 230 236 228 223 226 233 236 230 222 225 227
209 209 230 173 196 225 241 251 192 235 219 206 199 197 204 196 199 205 212 216 219 219 218 221 221 220 219 220 220 219 223 225 221 219 219 224 227 230 233 235 233 232 232 235 241 240 228 225 227
222 214 184 215 234 235 227 244 133 207 230 206 212 203 206 197 198 207 213 211 209 212 213 219 221 223 222 220 219 220 221 225 223 225 222 222 227 231 237 237 238 240 238 238 242 247 238 230 227
Wind_Speed_850mb
25 22 9 5 4 4 4 2 8 9 4 9 15 23 22 24 4 11 40 51 57 58 54 54 59 64 63 59 57 54 50 46 43 39 39 36 32 31 28 25 25 26 27 25 25 24 24 26 25
35 17 1 1 3 2 5 3 10 5 16 36 33 29 25 14 28 46 55 53 59 60 55 53 56 59 60 56 53 49 45 41 39 38 36 33 31 28 25 24 25 25 25 25 23 24 25 25 24
29 8 8 7 4 5 7 4 22 19 33 9 15 31 14 18 54 61 59 60 58 60 55 52 52 55 56 54 49 46 42 38 36 34 31 30 27 25 24 24 23 23 24 26 24 26 28 26 25
25 11 6 4 19 10 7 30 37 28 19 16 41 24 24 13 45 56 62 58 61 59 55 52 50 53 54 52 46 42 39 35 32 29 28 27 25 24 25 23 23 22 23 24 25 26 30 29 27
36 9 1 16 18 8 24 44 42 19 20 43 40 22 23 33 60 63 58 58 59 57 54 52 51 50 51 49 45 40 36 32 28 26 26 25 24 25 25 26 25 23 22 24 29 30 28 28 27
9 2 6 7 16 12 31 61 53 40 42 53 45 38 19 63 60 55 51 51 48 53 52 50 49 48 48 46 43 40 35 30 28 26 25 23 25 25 31 29 24 22 23 22 27 30 29 27 27
13 3 13 18 7 30 46 66 54 47 44 19 50 19 43 60 62 53 47 42 44 47 51 51 49 47 46 45 43 38 33 29 28 26 23 23 25 25 22 26 27 24 24 21 24 26 27 26 20
26 7 8 9 26 18 36 34 60 74 33 54 66 18 43 73 65 54 48 44 44 46 48 50 48 46 45 44 41 37 32 30 26 22 20 20 20 23 22 25 28 26 25 21 25 26 22 19 18
20 6 7 8 14 11 61 34 46 34 68 41 15 59 77 75 68 63 55 46 48 46 47 49 47 45 44 42 40 35 32 28 24 21 19 18 21 17 15 22 25 24 22 20 22 18 15 13 12
15 7 11 12 9 2 55 64 50 34 59 19 44 64 78 82 78 73 65 57 51 51 51 48 47 46 46 43 38 34 30 25 21 19 17 19 14 13 9 9 16 15 13 17 13 11 7 8 8
17 12 12 15 32 19 59 64 63 66 34 66 72 79 81 83 79 80 69 55 54 44 51 52 50 48 46 42 36 31 27 22 21 18 9 10 14 13 8 10 16 12 6 11 13 14 10 5 9
8 27 33 11 14 29 43 66 53 69 40 83 84 90 95 82 76 83 73 63 56 50 50 51 50 50 47 39 27 25 23 28 28 18 10 11 15 11 4 5 7 4 5 6 8 12 8 10 4
9 12 49 43 28 37 47 49 48 41 70 77 81 92 92 90 90 81 73 64 60 54 47 49 47 48 45 41 28 34 27 27 22 19 12 11 14 10 7 2 1 3 4 9 6 12 4 8 12
23 42 46 51 45 26 28 19 29 55 75 79 83 92 89 87 96 84 79 73 65 52 51 50 47 48 51 41 35 32 26 23 20 20 12 16 21 11 10 11 7 7 6 5 8 5 5 8 3
25 13 28 36 35 8 49 11 30 78 87 83 80 84 85 93 95 88 82 74 62 58 55 54 51 49 44 38 34 29 31 31 24 27 19 19 17 12 12 19 20 16 12 10 4 6 8 7 5
6 6 8 27 37 30 31 20 43 84 84 73 72 75 77 93 95 89 80 71 66 62 62 57 58 55 47 49 48 40 28 27 26 22 21 19 16 14 12 12 17 18 10 11 9 9 13 10 7
5 9 13 22 19 31 11 8 51 77 78 71 73 74 75 78 77 93 84 74 67 63 62 60 63 61 53 55 51 47 48 38 30 26 23 24 20 18 15 12 14 20 14 13 17 12 7 7 14
11 6 12 12 3 35 11 16 43 72 74 74 74 75 77 81 79 68 78 76 70 66 61 53 64 66 56 46 54 56 49 50 40 31 27 33 22 22 17 16 11 16 10 14 9 8 8 14 6
8 11 16 22 7 8 34 37 41 69 67 66 70 74 78 91 87 78 73 69 78 73 68 63 67 69 58 53 47 49 61 58 51 44 37 30 32 27 19 24 19 19 10 4 15 11 13 15 8
18 26 35 18 21 16 20 41 39 51 64 83 79 76 80 82 87 92 87 78 84 80 73 66 65 66 61 56 53 46 33 49 48 37 34 35 36 28 23 20 16 25 19 15 18 12 9 19 14
29 33 30 17 14 2 17 6 7 20 44 59 75 87 88 92 94 97 97 96 89 87 84 77 70 71 67 60 51 50 37 36 42 44 40 40 38 28 25 22 20 29 30 25 20 14 17 21 17
26 31 28 16 8 13 13 8 12 20 18 29 61 73 81 86 95 102 104 107 103 98 91 83 79 77 75 65 58 61 55 46 50 47 37 36 32 34 29 29 28 30 31 29 19 16 22 24 20
28 24 20 21 12 9 7 8 13 18 23 22 45 78 83 94 101 105 110 114 113 104 97 90 85 81 79 71 69 66 61 46 50 40 32 38 37 40 33 25 35 30 29 27 22 15 22 28 24
27 15 16 7 11 16 27 26 12 21 24 35 44 66 90 90 100 109 114 113 114 109 103 98 92 88 83 77 70 70 68 56 57 51 39 41 35 43 40 30 29 29 31 32 23 19 18 28 24
23 14 11 14 17 20 21 13 25 36 37 48 46 69 87 95 97 102 98 103 111 116 113 106 99 96 91 83 74 66 65 61 59 57 49 45 45 50 44 36 35 34 32 29 29 24 23 29 33
19 31 18 19 9 9 11 18 26 31 44 79 87 81 80 90 100 105 116 120 122 121 118 114 107 102 97 90 80 68 62 67 62 58 60 55 53 47 38 37 38 36 36 34 32 25 23 25 34
20 20 24 11 7 4 9 14 12 20 24 51 68 71 78 96 99 113 122 123 123 123 124 119 113 107 101 95 84 74 66 69 71 64 58 58 51 44 39 39 37 40 40 34 35 31 28 28 29
35 15 7 4 31 35 10 12 16 16 29 27 45 66 87 90 102 107 105 123 123 122 125 121 115 112 102 97 88 76 69 70 77 70 72 66 55 50 49 45 44 39 39 35 34 35 34 30 29
22 21 6 12 16 25 14 31 17 20 20 28 45 82 90 89 98 103 114 118 124 122 120 122 119 115 110 100 92 81 73 72 75 81 76 77 71 61 62 58 54 50 48 45 43 40 41 38 31
41 30 22 18 13 12 31 49 6 21 19 20 48 83 94 76 88 94 106 104 107 112 113 121 119 116 113 103 95 87 78 74 76 81 86 82 82 78 71 65 63 56 53 56 51 46 48 50 42
Wind_Direction_850mb
132 119 122 11 320 52 285 278 126 136 127 64 92 114 96 42 85 144 148 147 146 139 138 134 138 141 143 139 136 133 130 127 123 121 114 111 109 101 95 94 86 75 70 70 70 74 82 85 100
144 128 46 194 76 343 264 179 151 176 119 107 84 92 56 74 97 134 143 150 148 143 144 139 143 145 146 145 139 137 131 128 124 116 113 115 107 99 94 90 79 69 64 64 68 74 78 85 97
151 37 28 38 289 210 116 91 128 124 131 114 108 73 76 99 124 137 140 144 149 148 146 144 146 148 150 148 145 139 135 130 124 115 116 111 105 95 87 82 72 64 62 64 67 72 74 82 95
158 85 59 333 249 241 167 147 139 148 108 99 107 77 85 140 134 146 141 143 145 146 149 149 150 150 153 154 151 145 140 136 127 119 117 110 101 87 76 75 66 60 62 67 71 73 73 79 93
158 134 252 316 274 284 153 149 149 129 127 107 105 102 96 139 135 137 141 144 147 149 152 151 154 154 156 157 157 151 147 142 135 127 117 107 95 79 76 69 63 61 61 68 74 82 84 85 90
94 230 15 285 329 200 156 151 151 125 123 115 101 104 105 138 138 147 142 145 152 154 156 155 156 159 160 160 159 156 152 147 139 128 117 106 90 85 82 73 67 65 63 69 79 90 94 96 95
35 237 198 195 263 142 137 146 137 134 140 133 129 108 142 151 152 157 157 157 160 161 163 161 162 163 164 166 164 160 155 151 142 130 123 108 95 89 89 78 73 78 74 84 82 95 101 101 98
205 176 233 231 182 164 152 132 143 142 143 136 122 156 166 163 159 162 160 161 165 166 166 165 165 166 166 167 166 164 160 153 142 139 129 113 110 89 89 79 74 77 73 92 103 100 98 93 83
164 261 277 274 90 157 152 135 158 143 140 156 198 158 158 157 160 165 166 166 169 173 173 171 170 170 171 170 169 167 162 155 150 149 141 119 116 96 88 85 75 80 81 88 85 93 85 69 65
176 186 236 212 152 162 153 150 149 139 152 152 124 145 158 160 167 169 175 171 168 175 179 179 177 175 174 173 171 166 164 159 157 155 152 143 137 103 96 81 64 97 82 60 80 88 125 77 38
202 221 214 254 236 171 145 146 153 151 174 159 151 158 166 169 171 175 178 174 175 175 180 183 182 180 176 174 169 169 170 172 165 165 192 157 133 102 96 63 79 77 84 48 57 81 53 69 45
194 258 246 228 116 149 165 155 163 164 178 167 158 162 163 173 178 181 182 182 178 175 179 182 183 184 181 173 170 171 173 162 153 146 119 157 157 149 162 80 40 62 42 56 42 37 58 33 59
219 239 261 267 279 148 181 165 167 170 155 164 164 164 169 172 181 187 184 185 183 178 177 177 178 185 180 167 164 170 164 168 166 166 151 121 151 186 225 327 358 335 12 325 331 354 343 93 95
213 235 251 254 260 172 161 194 131 153 157 159 166 170 175 181 184 189 189 189 189 186 184 178 178 177 172 174 168 178 190 202 201 198 183 172 181 222 246 241 246 260 264 298 300 8 80 125 128
232 224 254 261 260 221 130 147 155 154 157 163 166 174 178 186 188 191 193 195 194 192 191 189 182 182 181 180 185 196 204 212 203 189 182 194 222 259 276 249 244 279 255 289 271 323 191 208 221
351 142 221 249 250 171 145 182 153 160 160 168 172 174 173 190 191 195 198 198 194 195 197 196 194 194 190 187 198 199 193 192 196 202 195 205 238 263 271 268 254 229 242 254 272 308 228 217 185
10 236 243 294 181 170 129 181 165 167 163 169 175 181 184 182 192 199 200 199 195 196 194 200 203 203 200 203 210 207 210 203 210 224 232 230 236 256 253 280 241 226 252 245 291 283 198 297 276
214 245 268 242 134 174 161 153 161 172 167 174 179 182 187 192 200 201 204 202 196 197 199 204 209 209 205 208 218 218 216 218 217 219 238 236 244 259 246 275 245 234 253 271 245 211 243 322 166
229 246 253 270 335 87 161 165 172 176 176 179 183 185 190 190 198 204 210 207 197 199 205 207 206 204 202 207 211 214 224 221 214 220 226 229 246 251 272 264 267 240 254 244 213 205 283 181 149
232 249 262 307 279 167 200 178 174 175 184 183 185 189 193 195 198 203 210 210 202 206 208 210 212 206 206 216 219 218 221 214 218 221 230 228 236 248 261 261 254 224 217 229 226 253 242 178 158
232 232 250 235 312 266 130 43 169 195 192 192 191 190 193 194 197 204 207 208 209 208 210 213 216 215 217 219 220 219 216 215 220 227 231 228 239 232 248 241 244 218 213 226 239 263 196 182 171
238 233 242 249 276 244 163 222 214 223 214 192 197 196 196 199 201 201 205 209 211 213 214 215 217 218 221 224 218 216 217 218 205 212 216 224 226 229 237 246 235 219 227 231 240 259 208 190 197
242 239 235 227 233 217 264 128 245 160 222 211 196 198 198 200 202 203 206 211 213 214 215 217 217 217 220 220 222 221 225 230 219 216 214 214 226 230 232 241 223 234 225 231 245 229 210 212 204
226 249 253 211 201 228 227 214 239 211 211 222 204 202 201 201 204 207 210 212 214 215 215 216 216 216 218 219 224 228 231 230 223 211 214 216 222 229 235 229 235 228 227 233 228 219 223 214 214
197 171 252 248 230 234 208 226 227 208 211 204 206 205 203 202 202 206 207 206 211 214 215 217 216 216 216 220 224 230 233 229 219 210 214 219 224 225 226 228 235 232 231 228 225 221 228 224 224
196 201 203 213 213 251 214 222 232 228 213 200 209 208 204 202 203 205 209 213 213 216 216 217 217 216 216 218 223 227 231 224 219 213 220 225 229 232 234 241 237 231 223 228 224 223 222 227 223
219 205 202 197 207 268 221 250 295 243 207 208 207 198 202 203 203 205 212 215 216 216 219 218 217 218 219 219 221 224 227 223 216 210 216 223 227 232 238 241 232 227 226 229 230 225 218 229 229
209 179 188 241 222 240 240 220 233 203 221 198 203 200 201 201 203 208 208 212 217 219 221 220 222 218 220 221 221 221 226 225 219 215 218 225 227 228 230 236 228 223 226 233 236 230 222 225 227
209 209 230 173 196 225 241 251 192 235 219 206 199 197 204 196 199 205 212 216 219 219 218 221 221 220 219 220 220 219 223 225 221 219 219 224 227 230 233 235 233 232 232 235 241 240 228 225 227
222 214 184 215 234 235 227 244 133 207 230 206 212 203 206 197 198 207 213 211 209 212 213 219 221 223 222 220 219 220 221 225 223 225 222 222 227 231 237 237 238 240 238 238 242 247 238 230 227